Lid_Strength_Index
3 3 3 3 3 3 3 3 3 3 3 3 3 3 3 3 4 5 8 6 4 -0 -0 1 1 2 2 4 4 4 11 12 11 10 10 7 8 6 5 6 5 4 5 3 2
3 3 3 3 3 3 3 3 3 3 3 3 3 3 3 3 5 7 4 2 0 -2 1 3 4 4 5 6 6 8 11 11 8 7 8 7 7 7 7 7 7 6 4 3 2
3 3 3 3 3 3 3 3 3 3 3 3 3 3 3 4 8 8 1 -2 -0 -2 0 1 2 4 7 6 7 7 11 8 7 6 6 7 7 6 7 9 7 7 5 4 3
3 3 3 3 3 3 3 3 3 3 3 3 3 3 3 5 12 6 -2 -2 -1 -1 1 2 4 6 7 8 6 10 7 7 7 6 6 7 6 7 6 6 4 4 4 4 4
3 3 3 3 4 4 3 3 3 3 3 3 3 3 4 8 9 4 -1 -1 -0 1 2 3 5 5 7 7 7 9 8 6 6 6 6 5 7 7 7 5 4 4 4 4 4
3 3 4 4 3 3 3 4 4 4 3 2 3 3 6 11 6 3 0 1 1 2 2 3 4 4 6 7 7 6 6 7 6 6 6 7 7 6 6 4 5 5 5 4 4
4 4 4 4 4 4 4 4 4 3 2 2 3 4 7 9 4 3 2 1 1 1 3 3 2 4 5 8 5 5 8 7 8 8 7 6 9 8 6 5 6 5 5 4 4
4 4 4 4 4 4 4 4 4 3 2 2 2 4 8 4 2 3 3 1 1 1 3 4 4 4 6 6 8 9 9 11 8 8 6 6 11 8 6 6 6 6 5 5 4
4 4 4 4 4 4 5 4 2 2 2 2 3 5 10 4 8 7 5 6 2 2 4 4 5 7 7 8 9 9 12 12 11 8 7 7 10 8 6 6 7 6 5 5 4
4 4 4 4 5 5 5 4 1 2 2 2 4 8 8 10 8 8 6 2 4 5 6 7 7 9 9 9 13 11 11 10 12 9 7 9 9 8 7 6 7 6 6 5 5
4 5 5 5 5 6 6 8 9 10 9 11 11 11 10 8 8 8 7 4 5 7 10 8 10 12 10 9 9 9 9 11 9 9 8 9 9 9 7 7 7 7 6 6 5
4 5 5 5 5 6 7 9 9 9 12 10 11 11 9 9 10 9 6 6 6 9 8 10 12 9 9 10 9 9 9 10 8 9 9 9 9 7 8 7 7 7 6 6 5
4 5 5 5 6 7 8 8 7 8 12 11 9 9 9 9 10 10 8 9 7 9 9 10 10 8 10 11 11 10 10 9 9 9 8 9 10 10 8 7 6 6 5 5 5
5 5 5 6 7 7 7 6 5 6 12 11 9 8 7 8 10 7 6 8 9 8 8 8 7 9 10 11 10 12 9 9 9 10 13 8 14 11 9 9 8 7 6 5 5
5 5 5 6 6 6 5 4 6 8 15 10 9 6 7 8 8 8 4 6 9 9 9 9 8 9 10 10 10 11 9 9 9 9 11 11 13 10 9 11 9 7 6 5 4
5 4 4 5 5 4 4 5 7 12 16 12 10 10 10 9 9 8 6 5 5 8 8 8 8 7 8 8 9 9 9 9 9 10 13 10 11 12 11 10 9 7 6 5 5
5 5 4 4 6 4 5 7 12 15 11 13 12 10 11 11 10 10 9 9 10 11 11 9 9 8 7 8 8 9 11 13 14 13 15 10 11 10 8 7 7 7 6 5 5
4 5 5 4 4 5 6 9 15 13 13 11 11 11 12 11 11 11 10 11 9 9 11 12 12 9 8 8 9 9 10 13 16 15 13 10 12 10 6 6 6 5 5 5 5
4 6 5 5 5 6 7 13 13 13 11 12 12 13 13 12 12 12 11 11 10 10 11 12 12 8 8 8 8 9 11 9 12 11 13 11 9 7 6 6 6 5 5 5 5
6 8 6 5 6 7 9 13 12 10 10 11 14 12 14 13 13 13 13 10 10 9 8 11 14 10 8 8 7 8 7 11 11 15 16 12 11 11 8 7 6 6 5 5 5
7 8 6 5 6 8 12 13 11 9 9 12 13 13 13 14 13 13 13 10 9 9 8 10 12 12 10 10 10 10 10 9 9 11 14 14 12 7 7 6 6 6 5 5 4
7 10 5 6 9 11 12 12 10 10 8 10 11 11 12 12 13 13 13 11 8 8 11 9 11 14 13 9 8 10 10 9 13 14 12 12 11 6 6 5 5 6 4 4 4
9 9 6 6 12 12 11 12 11 10 10 10 11 10 10 12 13 12 11 8 7 8 9 8 12 15 13 9 8 11 10 10 10 10 13 14 12 6 5 5 5 6 5 4 4
8 11 9 8 9 11 13 12 12 9 10 8 9 8 10 11 10 12 11 8 7 7 6 7 11 12 15 13 11 12 12 11 12 12 12 12 11 8 6 6 5 5 6 6 4
9 11 10 11 10 11 11 12 13 12 9 8 9 9 10 12 10 11 10 8 8 6 7 8 12 11 11 11 11 11 13 13 13 12 13 10 10 8 7 6 5 5 5 5 5
9 9 8 10 10 11 11 12 12 11 10 10 10 9 9 12 11 11 10 9 9 8 9 8 12 11 12 11 10 12 11 12 12 12 12 11 10 7 6 6 6 6 6 6 5
7 6 9 10 10 11 12 11 10 8 7 7 8 10 10 9 7 7 6 7 7 8 10 10 11 12 14 10 12 14 10 11 11 10 10 11 8 7 7 8 7 7 6 6 6